owner,sensor,date,latitude,longitude,vertical_datum,wind_speed,wind_to_direction,wind_speed_of_gust,qcFlag 
TABS,ioos:station:wmo:42043:1,2009-02-01T00:00:00Z,28.9818,-94.9186,4.0,3.448158929,152.9150418,4.26,'11111222,11111222,11111222' 
TABS,ioos:station:wmo:42043:1,2009-02-01T00:30:00Z,28.9818,-94.9186,4.0,3.368798005,150.0866344,4.12,'11111222,11111222,11111222' 
TABS,ioos:station:wmo:42043:1,2009-02-01T01:00:00Z,28.9818,-94.9186,4.0,3.303967312,145.1077189,3.8,'11111222,11111222,11111222' 
TABS,ioos:station:wmo:42043:1,2009-02-01T01:30:00Z,28.9818,-94.9186,4.0,3.18172909,140.3561282,3.74,'11111222,11111222,11111222' 
TABS,ioos:station:wmo:42043:1,2009-02-01T02:00:00Z,28.9818,-94.9186,4.0,3.211261434,150.3217899,3.91,'11111222,11111222,11111222' 
TABS,ioos:station:wmo:42043:1,2009-02-01T02:30:00Z,28.9818,-94.9186,4.0,3.2646133,150.4513177,3.73,'11111222,11111222,11111222' 
TABS,ioos:station:wmo:42043:1,2009-02-01T03:00:00Z,28.9818,-94.9186,4.0,2.666027007,135.7601603,3.31,'11111222,11111222,11111222' 
TABS,ioos:station:wmo:42043:1,2009-02-01T03:30:00Z,28.9818,-94.9186,4.0,2.731483114,128.7584159,3.19,'11111222,11111222,11111222' 
TABS,ioos:station:wmo:42043:1,2009-02-01T04:00:00Z,28.9818,-94.9186,4.0,3.630110191,168.7212583,4.55,'11111222,11111222,11111222' 
TABS,ioos:station:wmo:42043:1,2009-02-01T04:30:00Z,28.9818,-94.9186,4.0,5.163496877,182.1089811,6.54,'11111222,11111222,11111222' 
TABS,ioos:station:wmo:42043:1,2009-02-01T05:00:00Z,28.9818,-94.9186,4.0,3.682567039,170.3077059,4.17,'11111222,11111222,11111222' 
TABS,ioos:station:wmo:42043:1,2009-02-01T05:30:00Z,28.9818,-94.9186,4.0,3.17855313,164.3024546,3.65,'11111222,11111222,11111222' 
TABS,ioos:station:wmo:42043:1,2009-02-01T06:00:00Z,28.9818,-94.9186,4.0,2.700407377,140.7108955,3.35,'11111222,11111222,11111222' 
TABS,ioos:station:wmo:42043:1,2009-02-01T06:30:00Z,28.9818,-94.9186,4.0,3.466323701,160.6244025,4.11,'11111222,11111222,11111222' 
TABS,ioos:station:wmo:42043:1,2009-02-01T07:00:00Z,28.9818,-94.9186,4.0,4.21293247,167.9434761,4.86,'11111222,11111222,11111222' 
TABS,ioos:station:wmo:42043:1,2009-02-01T07:30:00Z,28.9818,-94.9186,4.0,3.659357867,160.5254807,4.33,'11111222,11111222,11111222' 
TABS,ioos:station:wmo:42043:1,2009-02-01T08:00:00Z,28.9818,-94.9186,4.0,3.571582282,157.0965756,4.2,'11111222,11111222,11111222' 
TABS,ioos:station:wmo:42043:1,2009-02-01T08:30:00Z,28.9818,-94.9186,4.0,3.499614264,151.3114201,4.1,'11111222,11111222,11111222' 
TABS,ioos:station:wmo:42043:1,2009-02-01T09:00:00Z,28.9818,-94.9186,4.0,4.077854828,159.9211178,4.92,'11111222,11111222,11111222' 
TABS,ioos:station:wmo:42043:1,2009-02-01T09:30:00Z,28.9818,-94.9186,4.0,5.204815078,165.9906986,6.27,'11111222,11111222,11111222' 
TABS,ioos:station:wmo:42043:1,2009-02-01T10:00:00Z,28.9818,-94.9186,4.0,4.105423242,153.3728079,4.96,'11111222,11111222,11111222' 
TABS,ioos:station:wmo:42043:1,2009-02-01T10:30:00Z,28.9818,-94.9186,4.0,4.296626584,147.1609015,5.19,'11111222,11111222,11111222' 
TABS,ioos:station:wmo:42043:1,2009-02-01T11:00:00Z,28.9818,-94.9186,4.0,4.690778187,147.3604678,5.54,'11111222,11111222,11111222' 
TABS,ioos:station:wmo:42043:1,2009-02-01T11:30:00Z,28.9818,-94.9186,4.0,4.604921281,145.1713619,5.91,'11111222,11111222,11111222' 
TABS,ioos:station:wmo:42043:1,2009-02-01T12:00:00Z,28.9818,-94.9186,4.0,5.400824011,148.3997321,6.87,'11111222,11111222,11111222' 
TABS,ioos:station:wmo:42043:1,2009-02-01T12:30:00Z,28.9818,-94.9186,4.0,4.615246472,146.7578348,5.45,'11111222,11111222,11111222' 
TABS,ioos:station:wmo:42043:1,2009-02-01T13:00:00Z,28.9818,-94.9186,4.0,4.18646629,149.576371,5.37,'11111222,11111222,11111222' 
TABS,ioos:station:wmo:42043:1,2009-02-01T13:30:00Z,28.9818,-94.9186,4.0,4.257557986,153.7963236,5.18,'11111222,11111222,11111222' 
TABS,ioos:station:wmo:42043:1,2009-02-01T14:00:00Z,28.9818,-94.9186,4.0,4.085119337,155.2545152,4.74,'11111222,11111222,11111222' 
TABS,ioos:station:wmo:42043:1,2009-02-01T14:30:00Z,28.9818,-94.9186,4.0,4.6803846,143.8649183,5.9,'11111222,11111222,11111222' 
TABS,ioos:station:wmo:42043:1,2009-02-01T15:00:00Z,28.9818,-94.9186,4.0,4.517167254,140.3896148,5.6,'11111222,11111222,11111222' 
TABS,ioos:station:wmo:42043:1,2009-02-01T15:30:00Z,28.9818,-94.9186,4.0,3.9062258,143.7464575,5.09,'11111222,11111222,11111222' 
TABS,ioos:station:wmo:42043:1,2009-02-01T16:00:00Z,28.9818,-94.9186,4.0,3.688956492,141.8256262,4.43,'11111222,11111222,11111222' 
TABS,ioos:station:wmo:42043:1,2009-02-01T16:30:00Z,28.9818,-94.9186,4.0,3.592005011,141.2159371,4.27,'11111222,11111222,11111222' 
TABS,ioos:station:wmo:42043:1,2009-02-01T17:00:00Z,28.9818,-94.9186,4.0,3.013171087,144.7278715,3.87,'11111222,11111222,11111222' 
TABS,ioos:station:wmo:42043:1,2009-02-01T17:30:00Z,28.9818,-94.9186,4.0,2.73806501,147.5290941,3.17,'11111222,11111222,11111222' 
TABS,ioos:station:wmo:42043:1,2009-02-01T18:00:00Z,28.9818,-94.9186,4.0,2.313655117,151.3305259,2.88,'11111222,11111222,11111222' 
TABS,ioos:station:wmo:42043:1,2009-02-01T18:30:00Z,28.9818,-94.9186,4.0,1.963109778,141.2037491,2.5,'11111222,11111222,11111222' 
TABS,ioos:station:wmo:42043:1,2009-02-01T19:00:00Z,28.9818,-94.9186,4.0,2.131783291,158.248761,2.53,'11111222,11111222,11111222' 
TABS,ioos:station:wmo:42043:1,2009-02-01T19:30:00Z,28.9818,-94.9186,4.0,2.688047619,143.4714405,3.35,'11111222,11111222,11111222' 
TABS,ioos:station:wmo:42043:1,2009-02-01T20:00:00Z,28.9818,-94.9186,4.0,2.734702909,141.8313057,3.24,'11111222,11111222,11111222' 
TABS,ioos:station:wmo:42043:1,2009-02-01T20:30:00Z,28.9818,-94.9186,4.0,3.206571378,153.1155837,3.77,'11111222,11111222,11111222' 
TABS,ioos:station:wmo:42043:1,2009-02-01T21:00:00Z,28.9818,-94.9186,4.0,3.196998592,148.2988549,3.95,'11111222,11111222,11111222' 
TABS,ioos:station:wmo:42043:1,2009-02-01T21:30:00Z,28.9818,-94.9186,4.0,3.438386249,139.1278977,4.15,'11111222,11111222,11111222' 
TABS,ioos:station:wmo:42043:1,2009-02-01T22:00:00Z,28.9818,-94.9186,4.0,2.892922398,145.7059756,3.69,'11111222,11111222,11111222' 
TABS,ioos:station:wmo:42043:1,2009-02-01T22:30:00Z,28.9818,-94.9186,4.0,3.037712955,145.0546278,3.62,'11111222,11111222,11111222' 
TABS,ioos:station:wmo:42043:1,2009-02-01T23:00:00Z,28.9818,-94.9186,4.0,2.587991499,139.2309184,3.46,'11111222,11111222,11111222' 
TABS,ioos:station:wmo:42043:1,2009-02-01T23:30:00Z,28.9818,-94.9186,4.0,2.56727482,136.1050535,3.13,'11111222,11111222,11111222' 
TABS,ioos:station:wmo:42043:1,2009-02-02T00:00:00Z,28.9818,-94.9186,4.0,2.404163056,135.0003157,3.13,'11111222,11111222,11111222' 
TABS,ioos:station:wmo:42043:1,2009-02-02T00:30:00Z,28.9818,-94.9186,4.0,1.852700731,129.9642832,2.59,'11111222,11111222,11111222' 
TABS,ioos:station:wmo:42043:1,2009-02-02T01:00:00Z,28.9818,-94.9186,4.0,2.616447974,134.3809274,3.42,'11111222,11111222,11111222' 
TABS,ioos:station:wmo:42043:1,2009-02-02T01:30:00Z,28.9818,-94.9186,4.0,3.56809473,126.4527266,4.54,'11111222,11111222,11111222' 
TABS,ioos:station:wmo:42043:1,2009-02-02T02:00:00Z,28.9818,-94.9186,4.0,3.920459157,142.2534933,4.84,'11111222,11111222,11111222' 
TABS,ioos:station:wmo:42043:1,2009-02-02T02:30:00Z,28.9818,-94.9186,4.0,3.483288676,148.5005413,4.27,'11111222,11111222,11111222' 
TABS,ioos:station:wmo:42043:1,2009-02-02T03:00:00Z,28.9818,-94.9186,4.0,2.899189542,155.1147051,3.5,'11111222,11111222,11111222' 
TABS,ioos:station:wmo:42043:1,2009-02-02T03:30:00Z,28.9818,-94.9186,4.0,0.478016736,164.2194941,1.05,'11111222,11111222,11111222' 
TABS,ioos:station:wmo:42043:1,2009-02-02T04:00:00Z,28.9818,-94.9186,4.0,1.384521578,188.3058672,2.1,'11111222,11111222,11111222' 
TABS,ioos:station:wmo:42043:1,2009-02-02T04:30:00Z,28.9818,-94.9186,4.0,2.939727879,186.6417141,3.47,'11111222,11111222,11111222' 
TABS,ioos:station:wmo:42043:1,2009-02-02T05:00:00Z,28.9818,-94.9186,4.0,2.951694429,178.0587286,3.76,'11111222,11111222,11111222' 
TABS,ioos:station:wmo:42043:1,2009-02-02T05:30:00Z,28.9818,-94.9186,4.0,2.710166047,180.6344537,3.39,'11111222,11111222,11111222' 
TABS,ioos:station:wmo:42043:1,2009-02-02T06:00:00Z,28.9818,-94.9186,4.0,2.992958403,187.1014656,3.6,'11111222,11111222,11111222' 
TABS,ioos:station:wmo:42043:1,2009-02-02T06:30:00Z,28.9818,-94.9186,4.0,2.455890877,207.9216735,2.98,'11111222,11111222,11111222' 
TABS,ioos:station:wmo:42043:1,2009-02-02T07:00:00Z,28.9818,-94.9186,4.0,2.052315765,232.1251049,2.57,'11111222,11111222,11111222' 
TABS,ioos:station:wmo:42043:1,2009-02-02T07:30:00Z,28.9818,-94.9186,4.0,0.803056661,275.0006329,1.28,'11111222,11111222,11111222' 
TABS,ioos:station:wmo:42043:1,2009-02-02T08:00:00Z,28.9818,-94.9186,4.0,0.291547595,120.964105,1.02,'11111222,11111222,11111222' 
TABS,ioos:station:wmo:42043:1,2009-02-02T08:30:00Z,28.9818,-94.9186,4.0,0.824621125,157.1666097,1.36,'11111222,11111222,11111222' 
TABS,ioos:station:wmo:42043:1,2009-02-02T09:00:00Z,28.9818,-94.9186,4.0,1.267753919,6.339966461,1.74,'11111222,11111222,11111222' 
TABS,ioos:station:wmo:42043:1,2009-02-02T09:30:00Z,28.9818,-94.9186,4.0,1.936517493,333.9640755,3.1,'11111222,11111222,11111222' 
TABS,ioos:station:wmo:42043:1,2009-02-02T10:00:00Z,28.9818,-94.9186,4.0,3.090954545,327.9551838,4.68,'11111222,11111222,11111222' 
TABS,ioos:station:wmo:42043:1,2009-02-02T10:30:00Z,28.9818,-94.9186,4.0,4.451516595,319.0076899,5.96,'11111222,11111222,11111222' 
TABS,ioos:station:wmo:42043:1,2009-02-02T11:00:00Z,28.9818,-94.9186,4.0,4.813366805,320.9868584,5.87,'11111222,11111222,11111222' 
TABS,ioos:station:wmo:42043:1,2009-02-02T11:30:00Z,28.9818,-94.9186,4.0,3.867466871,341.6117323,4.88,'11111222,11111222,11111222' 
TABS,ioos:station:wmo:42043:1,2009-02-02T12:00:00Z,28.9818,-94.9186,4.0,5.796835344,17.77830905,9.09,'11111222,11111222,11111222' 
TABS,ioos:station:wmo:42043:1,2009-02-02T12:30:00Z,28.9818,-94.9186,4.0,8.025085669,37.81206646,9.91,'11111222,11111222,11111222' 
TABS,ioos:station:wmo:42043:1,2009-02-02T13:00:00Z,28.9818,-94.9186,4.0,9.368991408,19.71115945,12.27,'11111222,11111222,11111222' 
TABS,ioos:station:wmo:42043:1,2009-02-02T13:30:00Z,28.9818,-94.9186,4.0,10.27441483,14.6581664,12.92,'11111222,11111222,11111222' 
TABS,ioos:station:wmo:42043:1,2009-02-02T14:00:00Z,28.9818,-94.9186,4.0,10.03889436,24.29253659,14.3,'11111222,11111222,11111222' 
TABS,ioos:station:wmo:42043:1,2009-02-02T14:30:00Z,28.9818,-94.9186,4.0,10.82647219,28.10334131,13.45,'11111222,11111222,11111222' 
TABS,ioos:station:wmo:42043:1,2009-02-02T15:00:00Z,28.9818,-94.9186,4.0,10.18070724,32.5658662,13.04,'11111222,11111222,11111222' 
TABS,ioos:station:wmo:42043:1,2009-02-02T15:30:00Z,28.9818,-94.9186,4.0,11.10034684,40.50581384,14.06,'11111222,11111222,11111222' 
TABS,ioos:station:wmo:42043:1,2009-02-02T16:00:00Z,28.9818,-94.9186,4.0,9.699386579,37.83841828,11.8,'11111222,11111222,11111222' 
TABS,ioos:station:wmo:42043:1,2009-02-02T16:30:00Z,28.9818,-94.9186,4.0,9.552716891,34.42173858,12.49,'11111222,11111222,11111222' 
TABS,ioos:station:wmo:42043:1,2009-02-02T17:00:00Z,28.9818,-94.9186,4.0,10.76756704,18.35056074,13.21,'11111222,11111222,11111222' 
TABS,ioos:station:wmo:42043:1,2009-02-02T17:30:00Z,28.9818,-94.9186,4.0,10.36475277,27.89986917,12.66,'11111222,11111222,11111222' 
TABS,ioos:station:wmo:42043:1,2009-02-02T18:00:00Z,28.9818,-94.9186,4.0,9.785908236,38.86067225,12.11,'11111222,11111222,11111222' 
TABS,ioos:station:wmo:42043:1,2009-02-02T18:30:00Z,28.9818,-94.9186,4.0,9.498010318,24.97289296,12.14,'11111222,11111222,11111222' 
TABS,ioos:station:wmo:42043:1,2009-02-02T19:00:00Z,28.9818,-94.9186,4.0,9.763180834,17.52531693,12.63,'11111222,11111222,11111222' 
TABS,ioos:station:wmo:42043:1,2009-02-02T19:30:00Z,28.9818,-94.9186,4.0,9.238641675,22.26180663,11.3,'11111222,11111222,11111222' 
TABS,ioos:station:wmo:42043:1,2009-02-02T20:00:00Z,28.9818,-94.9186,4.0,9.048298183,19.29576735,11.41,'11111222,11111222,11111222' 
TABS,ioos:station:wmo:42043:1,2009-02-02T20:30:00Z,28.9818,-94.9186,4.0,9.006358865,23.00619942,11.55,'11111222,11111222,11111222' 
TABS,ioos:station:wmo:42043:1,2009-02-02T21:00:00Z,28.9818,-94.9186,4.0,9.23578367,20.33796118,11.27,'11111222,11111222,11111222' 
TABS,ioos:station:wmo:42043:1,2009-02-02T21:30:00Z,28.9818,-94.9186,4.0,8.250824201,19.02761484,10.51,'11111222,11111222,11111222' 
TABS,ioos:station:wmo:42043:1,2009-02-02T22:00:00Z,28.9818,-94.9186,4.0,7.346053362,18.16338773,9.22,'11111222,11111222,11111222' 
TABS,ioos:station:wmo:42043:1,2009-02-02T22:30:00Z,28.9818,-94.9186,4.0,7.039957386,17.61109491,8.59,'11111222,11111222,11111222' 
TABS,ioos:station:wmo:42043:1,2009-02-02T23:00:00Z,28.9818,-94.9186,4.0,6.808443288,18.6742019,8.63,'11111222,11111222,11111222' 
TABS,ioos:station:wmo:42043:1,2009-02-02T23:30:00Z,28.9818,-94.9186,4.0,6.959288757,20.70032636,8.68,'11111222,11111222,11111222' 
TABS,ioos:station:wmo:42043:1,2009-02-03T00:00:00Z,28.9818,-94.9186,4.0,6.423589339,21.17173291,8.24,'11111222,11111222,11111222' 
TABS,ioos:station:wmo:42043:1,2009-02-03T00:30:00Z,28.9818,-94.9186,4.0,6.484689661,21.34174264,8.01,'11111222,11111222,11111222' 
TABS,ioos:station:wmo:42043:1,2009-02-03T01:00:00Z,28.9818,-94.9186,4.0,5.401425738,14.47336303,7.2,'11111222,11111222,11111222' 
TABS,ioos:station:wmo:42043:1,2009-02-03T01:30:00Z,28.9818,-94.9186,4.0,6.323171673,14.56344808,8.09,'11111222,11111222,11111222' 
TABS,ioos:station:wmo:42043:1,2009-02-03T02:00:00Z,28.9818,-94.9186,4.0,6.451914445,14.72523786,8.1,'11111222,11111222,11111222' 
TABS,ioos:station:wmo:42043:1,2009-02-03T02:30:00Z,28.9818,-94.9186,4.0,5.979782605,12.85074214,7.35,'11111222,11111222,11111222' 
TABS,ioos:station:wmo:42043:1,2009-02-03T03:00:00Z,28.9818,-94.9186,4.0,6.526944155,25.11208182,8.75,'11111222,11111222,11111222' 
TABS,ioos:station:wmo:42043:1,2009-02-03T03:30:00Z,28.9818,-94.9186,4.0,6.232856488,29.40254179,7.53,'11111222,11111222,11111222' 
TABS,ioos:station:wmo:42043:1,2009-02-03T04:00:00Z,28.9818,-94.9186,4.0,6.364848781,42.1341071,7.48,'11111222,11111222,11111222' 
TABS,ioos:station:wmo:42043:1,2009-02-03T04:30:00Z,28.9818,-94.9186,4.0,6.37762495,47.60512497,7.48,'11111222,11111222,11111222' 
TABS,ioos:station:wmo:42043:1,2009-02-03T05:00:00Z,28.9818,-94.9186,4.0,5.15617106,53.59647904,6.12,'11111222,11111222,11111222' 
TABS,ioos:station:wmo:42043:1,2009-02-03T05:30:00Z,28.9818,-94.9186,4.0,5.678468103,50.00031722,6.64,'11111222,11111222,11111222' 
TABS,ioos:station:wmo:42043:1,2009-02-03T06:00:00Z,28.9818,-94.9186,4.0,4.846328507,49.77025727,5.77,'11111222,11111222,11111222' 
TABS,ioos:station:wmo:42043:1,2009-02-03T06:30:00Z,28.9818,-94.9186,4.0,4.740643416,57.31526198,5.74,'11111222,11111222,11111222' 
TABS,ioos:station:wmo:42043:1,2009-02-03T07:00:00Z,28.9818,-94.9186,4.0,3.86094548,65.02756935,5.02,'11111222,11111222,11111222' 
TABS,ioos:station:wmo:42043:1,2009-02-03T07:30:00Z,28.9818,-94.9186,4.0,3.554405717,71.46272393,4.76,'11111222,11111222,11111222' 
TABS,ioos:station:wmo:42043:1,2009-02-03T08:00:00Z,28.9818,-94.9186,4.0,3.079383055,77.81388427,3.94,'11111222,11111222,11111222' 
TABS,ioos:station:wmo:42043:1,2009-02-03T08:30:00Z,28.9818,-94.9186,4.0,3.081768973,66.67898155,4.11,'11111222,11111222,11111222' 
TABS,ioos:station:wmo:42043:1,2009-02-03T09:00:00Z,28.9818,-94.9186,4.0,3.043106965,61.32908076,3.89,'11111222,11111222,11111222' 
TABS,ioos:station:wmo:42043:1,2009-02-03T09:30:00Z,28.9818,-94.9186,4.0,2.693640659,55.12962031,3.48,'11111222,11111222,11111222' 
TABS,ioos:station:wmo:42043:1,2009-02-03T10:00:00Z,28.9818,-94.9186,4.0,2.273433527,65.576539,3.07,'11111222,11111222,11111222' 
TABS,ioos:station:wmo:42043:1,2009-02-03T10:30:00Z,28.9818,-94.9186,4.0,2.362794955,74.78703179,3.38,'11111222,11111222,11111222' 
TABS,ioos:station:wmo:42043:1,2009-02-03T11:00:00Z,28.9818,-94.9186,4.0,2.334652008,67.05883926,3.38,'11111222,11111222,11111222' 
TABS,ioos:station:wmo:42043:1,2009-02-03T11:30:00Z,28.9818,-94.9186,4.0,2.327573844,70.94191914,3.68,'11111222,11111222,11111222' 
TABS,ioos:station:wmo:42043:1,2009-02-03T12:00:00Z,28.9818,-94.9186,4.0,2.332059176,102.1294688,3.41,'11111222,11111222,11111222' 
TABS,ioos:station:wmo:42043:1,2009-02-03T12:30:00Z,28.9818,-94.9186,4.0,2.34437625,127.896751,3.59,'11111222,11111222,11111222' 
TABS,ioos:station:wmo:42043:1,2009-02-03T13:00:00Z,28.9818,-94.9186,4.0,1.969390769,140.9770041,2.66,'11111222,11111222,11111222' 
TABS,ioos:station:wmo:42043:1,2009-02-03T13:30:00Z,28.9818,-94.9186,4.0,2.40842272,129.4403814,3.15,'11111222,11111222,11111222' 
TABS,ioos:station:wmo:42043:1,2009-02-03T14:00:00Z,28.9818,-94.9186,4.0,2.856168763,156.0377775,3.67,'11111222,11111222,11111222' 
TABS,ioos:station:wmo:42043:1,2009-02-03T14:30:00Z,28.9818,-94.9186,4.0,2.367804891,155.8166548,3.18,'11111222,11111222,11111222' 
TABS,ioos:station:wmo:42043:1,2009-02-03T15:00:00Z,28.9818,-94.9186,4.0,2.349553149,168.2120547,3.38,'11111222,11111222,11111222' 
TABS,ioos:station:wmo:42043:1,2009-02-03T15:30:00Z,28.9818,-94.9186,4.0,2.324758052,197.2659796,3.09,'11111222,11111222,11111222' 
TABS,ioos:station:wmo:42043:1,2009-02-03T16:00:00Z,28.9818,-94.9186,4.0,2.464163144,206.7731683,3.33,'11111222,11111222,11111222' 
TABS,ioos:station:wmo:42043:1,2009-02-03T16:30:00Z,28.9818,-94.9186,4.0,3.126483648,205.5816799,4.12,'11111222,11111222,11111222' 
TABS,ioos:station:wmo:42043:1,2009-02-03T17:00:00Z,28.9818,-94.9186,4.0,2.928361317,215.9699594,3.9,'11111222,11111222,11111222' 
TABS,ioos:station:wmo:42043:1,2009-02-03T17:30:00Z,28.9818,-94.9186,4.0,3.061388574,219.5660594,3.98,'11111222,11111222,11111222' 
TABS,ioos:station:wmo:42043:1,2009-02-03T18:00:00Z,28.9818,-94.9186,4.0,3.768938843,224.6776191,4.78,'11111222,11111222,11111222' 
TABS,ioos:station:wmo:42043:1,2009-02-03T18:30:00Z,28.9818,-94.9186,4.0,3.948670662,219.657062,5.17,'11111222,11111222,11111222' 
TABS,ioos:station:wmo:42043:1,2009-02-03T19:00:00Z,28.9818,-94.9186,4.0,4.654051998,217.1408631,5.99,'11111222,11111222,11111222' 
TABS,ioos:station:wmo:42043:1,2009-02-03T19:30:00Z,28.9818,-94.9186,4.0,5.070157788,216.4179946,6.24,'11111222,11111222,11111222' 
TABS,ioos:station:wmo:42043:1,2009-02-03T20:00:00Z,28.9818,-94.9186,4.0,5.619368292,218.134441,6.73,'11111222,11111222,11111222' 
TABS,ioos:station:wmo:42043:1,2009-02-03T20:30:00Z,28.9818,-94.9186,4.0,5.500445437,218.5785887,7.66,'11111222,11111222,11111222' 
TABS,ioos:station:wmo:42043:1,2009-02-03T21:00:00Z,28.9818,-94.9186,4.0,5.936303564,220.559535,7.82,'11111222,11111222,11111222' 
TABS,ioos:station:wmo:42043:1,2009-02-03T21:30:00Z,28.9818,-94.9186,4.0,6.244653713,225.9733238,7.87,'11111222,11111222,11111222' 
TABS,ioos:station:wmo:42043:1,2009-02-03T22:00:00Z,28.9818,-94.9186,4.0,6.622265473,219.3625755,8.45,'11111222,11111222,11111222' 
TABS,ioos:station:wmo:42043:1,2009-02-03T22:30:00Z,28.9818,-94.9186,4.0,6.6423264,211.3929012,8.21,'11111222,11111222,11111222' 
TABS,ioos:station:wmo:42043:1,2009-02-03T23:00:00Z,28.9818,-94.9186,4.0,6.454037496,214.0102833,8.06,'11111222,11111222,11111222' 
TABS,ioos:station:wmo:42043:1,2009-02-03T23:30:00Z,28.9818,-94.9186,4.0,6.087897831,213.9512254,7.77,'11111222,11111222,11111222' 
TABS,ioos:station:wmo:42043:1,2009-02-04T00:00:00Z,28.9818,-94.9186,4.0,5.982048144,216.6401509,7.71,'11111222,11111222,11111222' 
TABS,ioos:station:wmo:42043:1,2009-02-04T00:30:00Z,28.9818,-94.9186,4.0,5.340580493,215.088828,6.53,'11111222,11111222,11111222' 
TABS,ioos:station:wmo:42043:1,2009-02-04T01:00:00Z,28.9818,-94.9186,4.0,5.166236541,218.5560065,6.23,'11111222,11111222,11111222' 
TABS,ioos:station:wmo:42043:1,2009-02-04T01:30:00Z,28.9818,-94.9186,4.0,4.840960648,221.0635653,5.91,'11111222,11111222,11111222' 
TABS,ioos:station:wmo:42043:1,2009-02-04T02:00:00Z,28.9818,-94.9186,4.0,3.786528753,220.7162967,4.67,'11111222,11111222,11111222' 
TABS,ioos:station:wmo:42043:1,2009-02-04T02:30:00Z,28.9818,-94.9186,4.0,3.462253601,220.3142163,4.64,'11111222,11111222,11111222' 
TABS,ioos:station:wmo:42043:1,2009-02-04T03:00:00Z,28.9818,-94.9186,4.0,3.175358248,219.5053511,4.13,'11111222,11111222,11111222' 
TABS,ioos:station:wmo:42043:1,2009-02-04T03:30:00Z,28.9818,-94.9186,4.0,3.072783754,227.9020089,3.96,'11111222,11111222,11111222' 
TABS,ioos:station:wmo:42043:1,2009-02-04T04:00:00Z,28.9818,-94.9186,4.0,3.197655391,223.2260285,4.03,'11111222,11111222,11111222' 
TABS,ioos:station:wmo:42043:1,2009-02-04T04:30:00Z,28.9818,-94.9186,4.0,3.055879579,223.4089687,3.79,'11111222,11111222,11111222' 
TABS,ioos:station:wmo:42043:1,2009-02-04T05:00:00Z,28.9818,-94.9186,4.0,2.491104173,237.4583225,3.19,'11111222,11111222,11111222' 
TABS,ioos:station:wmo:42043:1,2009-02-04T05:30:00Z,28.9818,-94.9186,4.0,2.163145857,252.2351882,2.75,'11111222,11111222,11111222' 
TABS,ioos:station:wmo:42043:1,2009-02-04T06:00:00Z,28.9818,-94.9186,4.0,1.683092392,290.1575638,2.14,'11111222,11111222,11111222' 
TABS,ioos:station:wmo:42043:1,2009-02-04T06:30:00Z,28.9818,-94.9186,4.0,1.626898891,313.5055647,1.97,'11111222,11111222,11111222' 
TABS,ioos:station:wmo:42043:1,2009-02-04T07:00:00Z,28.9818,-94.9186,4.0,1.673559082,345.4653684,2.03,'11111222,11111222,11111222' 
TABS,ioos:station:wmo:42043:1,2009-02-04T07:30:00Z,28.9818,-94.9186,4.0,2.18123818,347.5564844,3.07,'11111222,11111222,11111222' 
TABS,ioos:station:wmo:42043:1,2009-02-04T08:00:00Z,28.9818,-94.9186,4.0,3.687166934,344.9082522,4.84,'11111222,11111222,11111222' 
TABS,ioos:station:wmo:42043:1,2009-02-04T08:30:00Z,28.9818,-94.9186,4.0,5.554169605,345.6133042,7.2,'11111222,11111222,11111222' 
TABS,ioos:station:wmo:42043:1,2009-02-04T09:00:00Z,28.9818,-94.9186,4.0,5.724727068,349.0235646,7.17,'11111222,11111222,11111222' 
TABS,ioos:station:wmo:42043:1,2009-02-04T09:30:00Z,28.9818,-94.9186,4.0,5.219386937,352.9564851,6.92,'11111222,11111222,11111222' 
TABS,ioos:station:wmo:42043:1,2009-02-04T10:00:00Z,28.9818,-94.9186,4.0,4.781140031,339.5559991,6.02,'11111222,11111222,11111222' 
TABS,ioos:station:wmo:42043:1,2009-02-04T10:30:00Z,28.9818,-94.9186,4.0,6.237836163,12.49867977,7.99,'11111222,11111222,11111222' 
TABS,ioos:station:wmo:42043:1,2009-02-04T11:00:00Z,28.9818,-94.9186,4.0,7.557909764,49.18459065,9.5,'11111222,11111222,11111222' 
TABS,ioos:station:wmo:42043:1,2009-02-04T11:30:00Z,28.9818,-94.9186,4.0,9.514672879,67.18058336,11.25,'11111222,11111222,11111222' 
TABS,ioos:station:wmo:42043:1,2009-02-04T12:00:00Z,28.9818,-94.9186,4.0,10.19937743,74.53263764,12.56,'11111222,11111222,11111222' 
TABS,ioos:station:wmo:42043:1,2009-02-04T12:30:00Z,28.9818,-94.9186,4.0,9.710386192,81.35212996,12.39,'11111222,11111222,11111222' 
TABS,ioos:station:wmo:42043:1,2009-02-04T13:00:00Z,28.9818,-94.9186,4.0,9.548952822,78.88971865,11.66,'11111222,11111222,11111222' 
TABS,ioos:station:wmo:42043:1,2009-02-04T13:30:00Z,28.9818,-94.9186,4.0,9.617504874,86.54216979,11.57,'11111222,11111222,11111222' 
TABS,ioos:station:wmo:42043:1,2009-02-04T14:00:00Z,28.9818,-94.9186,4.0,9.390681551,82.96539265,11.79,'11111222,11111222,11111222' 
TABS,ioos:station:wmo:42043:1,2009-02-04T14:30:00Z,28.9818,-94.9186,4.0,9.905170367,77.75940967,11.78,'11111222,11111222,11111222' 
TABS,ioos:station:wmo:42043:1,2009-02-04T15:00:00Z,28.9818,-94.9186,4.0,8.932821503,83.76564937,10.97,'11111222,11111222,11111222' 
TABS,ioos:station:wmo:42043:1,2009-02-04T15:30:00Z,28.9818,-94.9186,4.0,8.662222579,80.3632939,11.23,'11111222,11111222,11111222' 
TABS,ioos:station:wmo:42043:1,2009-02-04T16:00:00Z,28.9818,-94.9186,4.0,8.552946861,84.96891571,10.62,'11111222,11111222,11111222' 
TABS,ioos:station:wmo:42043:1,2009-02-04T16:30:00Z,28.9818,-94.9186,4.0,8.086810249,80.67705261,10.28,'11111222,11111222,11111222' 
TABS,ioos:station:wmo:42043:1,2009-02-04T17:00:00Z,28.9818,-94.9186,4.0,8.029476944,80.10322938,9.96,'11111222,11111222,11111222' 
TABS,ioos:station:wmo:42043:1,2009-02-04T17:30:00Z,28.9818,-94.9186,4.0,8.032932217,78.80157847,9.97,'11111222,11111222,11111222' 
TABS,ioos:station:wmo:42043:1,2009-02-04T18:00:00Z,28.9818,-94.9186,4.0,8.253175147,77.25996208,10.08,'11111222,11111222,11111222' 
TABS,ioos:station:wmo:42043:1,2009-02-04T18:30:00Z,28.9818,-94.9186,4.0,7.618694114,83.5182188,10.18,'11111222,11111222,11111222' 